Location: Staunton
(38.1490°N, 79.0720°W)
Time: 00:08:47
(UTC-05:00)

ISS - Pass Details

Date: 24 November 2020
Orbit: 418 x 421 km, 51.6° (Epoch: 26 November)

Event Time Altitude Azimuth Distance (km) Brightness Sun altitude
Rises 18:19:13 0° 275° (W) 2,356 1.5 -15.7°
Reaches altitude 10° 18:21:56 10° 299° (WNW) 1,495 -0.3 -16.2°
Maximum altitude 18:24:03 16° 338° (NNW) 1,204 -1.4 -16.6°
Enters shadow 18:25:23 13° 5° (N) 1,330 -1.4 -16.9°
